Regional Weather Roundup
Issued by NWS

Home | Current Version | Previous Version | Graphics & Text | Print | Product List | Glossary On
Versions: 1 2 3 4 5 6 7 8 9 10 11 12 13 14 15 16 17 18 19 20 21 22 23 24 25 26 27 28 29 30 31 32 33 34 35 36 37 38 39 40 41 42 43 44 45 46 47 48 49 50
000
ASUS44 KMEG 240010
RWRTN
TENNESSEE HOURLY STATE WEATHER ROUNDUP
NATIONAL WEATHER SERVICE MEMPHIS TN
700 PM CDT SUN APR 23 2017

TNZ002-004-019-021-049-052-054-088>092-240100-
WEST TENNESSEE

CITY           SKY/WX    TMP DP  RH WIND       PRES   REMARKS
MEMPHIS INTL   PTCLDY    60  50  69 N5        29.93S
NWS MEMPHIS      N/A     58 N/A N/A MISG        N/A
JACKSON        RAIN      55  52  89 N10       29.91F
DYERSBURG      MOCLDY    58  52  80 SW5       29.93F
SOMERVILLE     CLOUDY    55  50  82 N7        29.91S
UNION CITY     CLOUDY    57  54  88 W3        29.91F
BOLIVAR        CLOUDY    55  50  82 NW7       29.90S
PARIS          CLOUDY    52  48  87 NE5       29.91S
HUNTINGDON     CLOUDY    55  52  88 NE8       29.90R
LEXINGTON      CLOUDY    54  52  94 N9        29.88S
SAVANNAH       CLOUDY    52  50  93 N6        29.87S
$$

TNZ008-025-027-028-033-062-065-066-240100-
NORTH MIDDLE TENNESSEE

CITY           SKY/WX    TMP DP  RH WIND       PRES   REMARKS
NASHVILLE      LGT RAIN  52  50  93 N15G22    29.85R FOG
PORTLAND       CLOUDY    52  50  93 N13G24    29.85S
CLARKSVILLE    LGT RAIN  54  49  83 N12       29.90S
SMYRNA         LGT RAIN  52  51  97 N14       29.84S
COOKEVILLE     CLOUDY    55  54  94 VRB6      29.77S
GALLATIN       CLOUDY    52  50  93 N16G22    29.86S
CROSSVILLE     CLOUDY    55  52  89 E9        29.79S
$$

TNZ061-075-076-078-094-096-097-240100-
SOUTH MIDDLE TENNESSEE

CITY           SKY/WX    TMP DP  RH WIND       PRES   REMARKS
FAYETTEVILLE   CLOUDY    52  50  93 NW7       29.81S
TULLAHOMA      CLOUDY    48  48 100 NW10      29.81R
WINCHESTER     CLOUDY    50  48  93 NW7       29.81R
MCMINNVILLE    CLOUDY    52  52 100 NW6       29.79R VSB 1
COLUMBIA       CLOUDY   N/A N/A N/A VRB3      29.82F
SHELBYVILLE    CLOUDY    52  52 100 N9        29.83R
$$

TNZ017-018-042-046-047-240100-
NORTHEAST TENNESSEE

CITY           SKY/WX    TMP DP  RH WIND       PRES   REMARKS
TRI CITIES     RAIN      50  48  93 E7        29.91R FOG
ELIZABETHTON   RAIN      52  50  93 CALM      29.91R
$$

TNZ012-013-036-069-073-074-240100-
CENTRAL EAST TENNESSEE

CITY           SKY/WX    TMP DP  RH WIND       PRES   REMARKS
KNOXVILLE      LGT RAIN  56  53  90 NE9       29.79F FOG
OAK RIDGE      LGT RAIN  55  52  89 VRB5      29.81S
DOWNTOWN KNOXV CLOUDY    55  54  94 VRB6G14   29.79F
GATLINBURG     CLOUDY    54  54 100 E6        29.81F
MORRISTOWN     CLOUDY    52  52 100 NE9       29.84R FOG
JACKSBORO      CLOUDY    54  52  94 NE9       29.84F
$$

TNZ083-085-099-240100-
SOUTHEAST TENNESSEE

CITY           SKY/WX    TMP DP  RH WIND       PRES   REMARKS
CHATTANOOGA    MOCLDY    59  55  87 W5        29.77R
$$

SKY/WX REPORTED AS FAIR MEANS FEW OR NO CLOUDS BELOW
12 THOUSAND FEET.





USA.gov is the U.S. government's official web portal to all federal, state and local government web resources and services.